Theta_e
325 327 328 338 345 344 346 346 347 348 347 348 348 349 348 349 349 349 349 349 349 349 349 349 349 349 349 349 349 348 349 348 349 349 349 348 348 348 348 348 348 349 349 349 349 349 350 350 350 350 350 350 350 350 350 349 350 350 350 349 350 350 350 348 348 348 347 346 348 349 349 352 353 352 353 355 355 353 352 352 352 347 346 349 353
324 325 327 328 343 343 344 345 346 347 347 347 348 348 348 348 348 348 348 348 348 349 349 348 349 349 349 349 349 348 348 348 348 349 349 348 348 348 347 348 347 347 348 348 348 349 349 349 349 349 349 351 350 349 349 349 348 349 349 349 349 349 349 346 345 344 344 343 345 346 346 348 351 351 355 355 354 354 352 352 351 346 343 354 354
325 325 325 329 341 342 343 344 345 345 346 346 347 347 347 347 347 347 347 347 347 347 348 347 348 348 348 348 348 348 348 347 347 348 348 348 348 347 348 348 347 348 348 348 347 347 348 347 349 348 349 349 349 349 349 348 348 347 348 348 348 346 345 343 342 342 342 343 344 344 343 344 348 352 355 355 355 354 352 352 351 351 348 354 353
324 324 324 330 338 340 340 341 344 344 344 343 344 344 345 346 345 346 346 346 346 346 347 347 348 347 347 347 347 347 347 346 348 347 346 346 346 346 346 347 347 347 347 348 348 348 347 346 345 347 347 347 347 347 347 347 347 347 347 345 344 342 340 339 339 341 342 343 343 342 341 338 339 349 354 354 355 353 351 351 351 353 353 353 354
324 323 323 323 328 337 340 340 340 342 342 341 342 343 344 344 344 345 345 345 345 346 346 346 346 346 346 346 345 345 345 346 346 345 344 344 344 344 344 345 346 347 347 347 347 347 347 347 346 345 343 343 343 343 344 344 344 344 343 342 341 339 337 336 337 340 342 341 341 339 336 337 335 350 353 352 352 353 351 352 352 352 353 353 353
322 322 322 322 324 329 338 338 339 340 340 340 339 341 342 342 342 343 343 343 344 344 344 345 345 344 344 344 344 343 343 343 343 343 342 341 341 341 342 342 343 344 346 347 347 346 346 346 345 343 341 339 339 339 340 340 340 340 339 338 337 335 334 334 335 337 339 338 337 335 335 336 336 345 352 352 351 353 352 349 348 350 351 350 349
322 321 322 321 322 327 337 338 339 339 338 338 338 338 340 340 340 340 340 340 341 342 342 342 342 342 342 342 341 341 341 341 341 340 340 340 339 339 339 340 341 342 343 345 346 345 345 344 342 340 338 336 336 336 337 336 336 336 336 335 334 332 331 331 332 332 333 333 331 332 333 335 335 336 350 349 351 351 349 347 347 347 347 348 350
321 321 321 321 321 330 336 336 337 337 338 337 337 337 338 338 338 337 337 338 339 339 341 340 340 340 340 339 339 339 339 339 339 338 338 337 336 336 335 336 337 338 339 340 340 339 339 338 337 336 334 332 331 331 331 332 332 332 332 332 332 331 328 327 327 327 327 325 328 330 331 334 336 336 349 348 347 348 348 348 347 348 348 349 349
320 320 321 321 322 333 335 336 336 336 336 336 336 336 336 336 336 336 336 336 336 336 337 337 337 336 337 337 337 337 337 336 335 334 334 333 332 332 332 332 332 334 334 335 336 335 333 332 331 330 329 329 328 327 328 328 329 328 328 329 328 328 327 325 323 321 317 319 322 326 329 333 336 335 346 348 348 349 349 349 349 348 349 349 348
319 319 319 319 321 332 334 336 335 335 335 335 335 335 335 335 335 335 335 335 334 334 334 334 334 334 333 334 334 334 333 332 332 331 331 330 330 330 330 330 330 331 331 331 331 331 330 329 328 327 328 327 326 326 327 327 328 327 327 327 326 326 325 325 322 313 311 313 317 320 326 335 333 333 341 348 347 349 349 345 344 346 348 348 348
317 317 317 318 319 332 333 334 334 334 334 334 334 334 334 334 335 335 335 335 334 334 333 333 332 332 332 332 332 332 331 331 331 330 330 329 329 328 328 327 326 327 327 328 328 328 327 327 325 326 326 326 325 326 326 325 324 324 324 323 323 323 323 322 319 309 308 310 312 316 321 328 327 329 341 347 346 347 348 345 345 347 348 348 348
316 315 316 316 325 332 333 332 333 333 333 333 334 334 334 334 334 334 334 334 334 334 333 332 332 332 332 332 331 331 330 329 328 328 327 327 327 326 326 325 325 324 325 325 326 326 326 325 325 324 324 324 324 324 324 323 322 322 322 322 322 322 321 320 314 310 307 307 308 314 314 319 324 329 343 347 345 347 349 348 348 347 347 347 348
314 315 315 315 319 331 332 332 331 332 333 333 334 334 334 334 334 334 333 333 333 333 332 330 330 330 330 329 329 328 328 327 326 326 326 325 325 325 325 324 323 323 323 323 324 325 325 325 324 324 324 323 323 323 321 321 321 320 320 320 320 319 317 316 311 309 308 307 309 311 315 319 324 339 346 346 345 345 345 347 346 346 346 346 346
313 313 312 314 316 326 330 330 331 332 333 333 333 333 332 332 333 333 333 332 332 330 329 329 328 328 328 327 327 326 326 325 325 324 324 323 323 323 324 323 323 322 322 322 322 323 324 324 324 324 323 322 322 320 320 320 319 319 319 318 318 317 316 312 313 307 307 307 310 314 317 324 328 338 344 345 344 344 345 345 345 345 345 346 346
312 311 311 312 315 318 326 329 330 331 331 332 332 331 331 331 331 331 331 330 329 328 328 327 326 326 326 326 325 325 324 324 323 323 322 322 322 322 322 322 322 322 322 322 321 322 322 322 321 321 321 321 319 319 319 319 318 317 317 316 316 315 314 306 306 305 305 309 310 314 314 322 328 334 339 344 345 345 344 345 345 344 344 344 345
312 311 311 311 312 314 318 324 327 327 329 329 329 329 329 329 329 328 328 328 328 327 326 326 325 324 324 323 323 322 322 322 322 321 321 320 321 321 321 321 321 321 322 321 321 321 322 320 319 318 317 317 317 318 317 317 316 316 315 315 313 313 313 308 302 302 302 306 308 310 308 315 326 330 333 337 338 340 341 340 341 341 342 343 343
310 310 310 310 309 310 313 314 320 324 325 325 327 327 327 327 326 326 326 326 326 326 325 325 325 324 322 320 319 318 317 319 320 321 320 320 320 320 320 320 320 320 321 321 320 320 320 318 316 316 315 315 316 316 316 316 315 314 313 312 312 312 311 308 301 300 302 307 307 307 306 313 322 327 330 331 332 333 334 334 335 335 336 338 339
308 308 309 309 308 309 310 311 314 315 315 321 323 325 325 325 325 324 324 324 324 324 324 323 323 321 320 318 317 316 316 315 316 318 319 317 317 317 319 319 318 318 319 319 318 317 317 316 315 314 313 313 313 314 314 313 313 312 311 311 310 310 309 307 299 300 302 306 304 306 306 319 322 325 327 328 329 329 329 330 330 330 331 333 335
306 307 307 307 308 307 309 308 309 309 310 311 313 319 323 324 323 323 323 323 323 322 321 320 319 319 318 316 315 314 313 313 314 316 316 314 314 315 317 317 317 317 317 317 316 316 315 314 313 313 311 310 311 311 311 311 311 310 310 310 309 308 306 302 299 299 301 300 303 301 306 317 320 323 325 325 326 326 326 327 327 328 328 329 330
303 304 305 305 306 306 306 306 306 306 306 307 309 312 319 320 321 321 321 321 320 320 318 316 315 314 314 312 311 309 309 307 310 310 313 313 311 312 314 313 315 316 316 315 315 314 313 312 311 310 309 308 308 308 308 308 308 308 308 308 307 305 299 298 297 298 299 300 305 299 312 316 319 322 323 324 325 325 325 326 326 327 328 329 329
301 301 303 303 303 305 305 304 304 304 304 304 306 308 313 317 317 318 318 318 318 317 316 314 312 310 309 309 306 300 299 300 300 300 307 304 310 311 311 311 312 313 313 313 313 312 311 310 310 309 307 306 304 303 304 306 306 306 306 305 303 297 298 297 297 299 299 299 303 300 312 314 317 321 322 323 324 324 324 324 324 324 325 325 326
298 298 300 301 301 302 304 303 302 302 303 304 305 307 309 311 306 308 307 311 313 312 307 303 307 302 307 300 298 300 298 298 301 307 302 303 306 310 310 309 309 310 311 311 311 311 310 309 307 306 305 304 301 293 295 300 302 303 302 302 296 296 296 297 296 296 298 297 301 304 311 313 316 318 321 322 322 322 322 322 323 323 324 324 325
297 297 298 299 300 301 302 301 301 301 301 302 304 305 304 303 302 303 305 307 306 302 300 301 297 299 298 297 298 297 297 298 299 302 302 308 305 308 307 306 305 305 307 308 308 308 308 306 305 304 302 300 293 291 291 291 292 298 298 294 292 294 295 295 295 295 296 298 298 306 309 312 314 316 319 320 321 321 321 322 322 322 323 324 325
298 298 298 299 299 299 300 301 300 300 300 300 302 302 300 300 300 301 301 301 300 300 298 297 297 297 298 297 295 297 297 297 307 307 304 298 302 306 305 305 303 301 300 298 302 303 303 303 303 300 298 295 291 291 291 291 291 291 292 291 291 292 294 294 293 294 294 298 297 305 307 309 312 314 317 319 320 320 320 321 322 322 323 323 324
298 298 297 298 298 298 299 299 300 299 299 299 300 300 298 298 298 298 298 298 298 298 297 297 296 297 297 296 296 297 296 297 296 294 293 293 292 292 292 291 291 292 296 289 290 292 292 291 291 293 290 291 290 290 291 291 291 291 291 291 291 292 292 293 292 292 293 294 296 303 305 307 310 312 315 317 318 319 320 320 321 322 322 323 324
296 296 297 298 298 298 299 299 300 298 298 298 299 299 299 297 296 297 297 297 297 296 297 297 296 296 296 297 297 295 294 293 293 292 292 292 291 290 290 289 290 290 292 289 289 289 289 289 290 290 290 290 290 290 291 292 290 290 290 290 291 291 291 291 290 291 292 293 294 301 303 305 308 310 312 314 316 317 318 319 320 321 322 323 323
296 297 297 297 298 298 299 299 300 298 296 297 296 298 297 296 296 297 296 296 296 296 296 295 296 296 296 297 295 294 293 292 292 292 291 291 291 290 289 289 288 289 291 288 289 289 289 289 289 290 289 289 290 290 290 290 289 290 290 290 290 290 290 290 290 290 291 291 295 299 301 303 306 308 310 312 314 316 317 318 319 320 321 322 322
295 296 296 297 298 298 299 299 300 299 297 296 295 297 297 296 296 299 298 298 297 296 296 295 296 296 296 296 295 293 293 292 291 291 290 290 290 290 289 288 288 289 290 289 289 288 288 288 289 289 289 289 289 289 289 289 289 289 289 289 289 289 289 289 289 290 290 290 291 296 299 302 304 306 309 310 312 315 316 317 318 320 320 320 321
295 296 296 296 297 298 298 299 299 299 298 296 295 297 297 296 296 297 296 300 296 296 296 295 295 295 295 296 295 293 292 292 291 291 290 290 290 289 288 287 288 288 289 288 288 288 288 288 289 288 288 288 288 289 289 288 288 288 288 288 288 288 288 288 288 289 289 289 289 293 298 300 303 305 307 309 311 313 315 316 317 318 318 319 319
296 296 296 296 297 298 298 298 299 299 299 297 296 297 297 296 296 297 296 299 295 295 295 294 294 294 294 295 294 293 292 291 291 290 290 289 289 289 288 287 287 288 288 288 288 288 287 287 288 288 288 287 288 289 288 287 287 287 287 287 287 287 288 288 288 288 288 289 289 291 296 298 301 304 305 307 310 312 313 314 315 316 317 319 319
297 295 296 296 297 297 297 298 299 300 298 298 296 297 297 296 296 297 296 297 295 295 294 294 293 293 293 294 293 293 292 291 291 290 289 289 288 288 287 287 286 287 287 287 288 288 287 287 288 287 287 287 287 287 288 287 286 286 287 287 287 287 287 288 288 288 288 288 288 289 292 296 299 302 304 306 308 309 311 312 314 314 316 317 317
296 296 296 297 296 297 297 298 298 299 298 297 297 296 296 296 296 296 296 296 295 295 294 293 294 292 292 293 292 292 293 291 291 290 289 289 288 287 287 286 286 286 287 287 287 287 287 288 288 287 287 287 287 286 288 286 285 286 286 286 286 286 287 287 287 287 287 288 288 288 289 292 296 299 302 304 307 308 309 310 312 313 314 315 316
297 297 296 296 296 296 297 297 298 298 297 297 296 296 296 296 296 296 296 296 295 294 293 292 293 292 292 292 292 292 292 291 290 290 291 288 288 287 286 287 287 287 287 288 287 286 286 286 287 288 287 286 286 286 287 286 285 285 285 286 286 286 286 286 287 287 287 287 287 287 288 290 290 296 298 301 304 306 308 309 309 311 312 313 314
298 296 295 296 297 297 298 297 297 297 297 296 296 295 296 296 296 295 296 295 295 294 293 292 292 292 291 291 291 292 291 290 290 289 289 288 288 287 286 286 286 287 287 287 286 286 286 286 286 286 289 285 284 285 285 284 284 284 284 285 285 285 286 286 286 286 286 287 287 287 288 288 289 290 292 298 300 303 307 308 309 310 311 311 312
298 295 295 296 296 296 297 297 297 296 297 295 295 295 295 295 295 294 294 295 294 294 293 292 292 292 291 291 291 292 291 290 290 289 288 288 287 286 286 286 287 286 286 286 285 285 285 286 286 284 283 284 284 286 284 284 284 284 284 285 285 286 286 286 286 286 286 286 286 287 288 288 289 290 292 291 295 299 303 306 308 308 310 310 309
298 296 296 296 295 296 297 296 296 296 296 296 295 295 295 295 295 295 294 294 293 293 292 292 292 291 291 290 291 291 290 290 289 289 288 287 287 286 286 286 286 286 286 286 285 285 285 286 285 283 283 284 285 283 284 283 284 284 284 285 285 286 285 285 285 285 285 286 286 287 288 288 289 290 295 292 292 295 301 303 305 307 309 307 306
299 297 295 295 295 295 297 295 295 296 296 295 294 294 294 294 294 294 294 293 293 292 292 292 291 291 290 290 290 291 290 290 289 288 288 287 286 286 285 286 287 285 285 285 285 286 285 285 284 285 283 283 283 283 283 283 283 284 284 284 284 285 284 284 285 285 287 286 286 286 287 288 290 294 290 291 292 292 296 301 303 305 306 304 304
299 297 296 295 295 295 296 295 295 296 296 295 294 294 294 294 293 293 293 292 291 291 291 291 291 291 290 290 290 291 290 289 288 288 287 287 286 286 286 286 286 285 284 284 284 284 284 283 283 283 284 283 282 282 283 283 284 284 284 283 284 284 284 284 285 289 285 285 285 285 288 289 289 290 291 291 291 292 292 295 300 301 301 301 303
299 297 296 295 295 294 295 295 295 295 295 294 293 293 293 292 291 291 291 291 290 289 290 290 290 290 290 290 290 290 290 288 288 288 287 287 286 286 285 286 286 284 284 284 284 284 283 282 282 282 283 282 282 283 283 283 283 283 283 283 284 284 284 284 285 284 283 284 286 290 289 289 289 289 290 289 288 287 288 289 290 290 290 297 301
298 297 295 294 294 294 294 294 294 294 294 293 292 292 291 291 290 289 289 290 289 289 289 290 290 290 290 289 290 289 289 288 288 287 287 286 286 285 285 285 285 284 284 283 283 282 282 282 282 282 282 284 284 283 282 282 282 281 283 283 283 283 282 284 283 283 286 285 284 286 285 286 284 284 285 285 285 286 286 287 288 287 289 293 299
297 295 294 294 294 294 293 293 294 293 293 292 292 291 291 290 289 290 291 290 289 289 289 289 289 290 290 290 289 289 288 288 288 287 286 287 286 285 285 284 284 284 284 284 283 282 282 282 284 284 281 280 281 281 282 282 280 279 280 281 282 282 284 285 283 283 283 283 283 283 283 283 283 283 284 285 285 285 286 286 287 287 288 289 290
295 294 294 294 293 293 293 293 293 293 293 293 293 292 292 292 291 291 291 290 289 289 289 289 289 290 290 289 289 288 288 288 288 287 286 286 285 285 285 284 284 284 284 283 282 285 284 282 282 281 282 280 280 282 283 280 278 278 278 278 279 281 283 282 283 281 283 284 283 283 283 283 284 284 285 284 284 284 285 286 286 287 288 288 288
296 295 295 293 292 292 293 293 293 292 293 293 293 292 292 292 291 290 291 289 289 290 290 289 289 289 289 289 289 288 288 287 287 287 286 286 285 285 284 284 284 284 284 282 283 283 282 282 281 281 280 281 281 283 281 281 278 279 279 278 275 277 281 279 280 282 284 283 283 282 284 283 284 283 284 283 283 284 286 286 286 287 287 287 287
294 293 293 292 292 292 292 292 292 292 293 293 293 292 292 290 289 290 289 289 288 289 288 287 287 288 288 288 288 288 288 287 287 286 286 285 285 285 284 284 284 284 283 283 282 282 281 281 281 282 280 279 278 280 282 280 279 278 276 277 276 277 275 276 278 281 282 281 282 282 282 283 282 282 283 283 284 284 285 285 285 286 286 286 287
294 293 293 293 293 292 292 292 292 292 292 293 292 291 290 288 287 287 287 286 286 286 286 285 287 288 288 287 288 288 288 287 287 286 286 285 284 284 284 284 283 283 283 282 282 282 281 281 282 281 279 279 279 278 280 281 279 282 278 277 275 275 275 275 278 278 279 279 281 281 283 283 281 282 283 283 283 283 284 284 285 285 285 286 286
294 294 294 293 293 292 292 292 292 292 292 292 292 290 290 289 287 287 286 286 286 285 286 286 286 287 288 288 287 288 288 287 286 286 286 285 284 284 284 283 283 283 283 282 282 281 281 281 281 281 280 279 280 278 277 281 281 281 280 278 277 276 275 276 277 275 278 281 281 280 281 281 281 281 281 281 282 283 285 284 284 284 284 284 284
294 294 293 293 293 292 292 292 292 291 291 291 291 291 290 289 289 289 288 288 287 287 288 288 288 288 288 287 287 287 287 287 286 286 285 285 284 284 283 283 283 282 283 281 281 281 281 281 281 280 280 282 280 277 278 278 278 279 280 279 280 281 279 278 275 275 275 277 277 278 278 280 280 280 281 281 281 281 282 283 283 282 282 283 283
294 292 292 292 292 292 291 291 291 291 291 291 291 291 290 289 288 288 289 288 288 288 287 288 288 288 287 287 287 287 286 287 286 285 285 285 284 283 283 283 282 282 283 281 281 281 281 282 281 281 281 281 279 278 278 278 277 278 280 278 279 279 278 278 278 276 275 273 276 279 279 278 279 279 280 280 280 280 280 281 281 281 281 282 282
291 292 292 292 292 292 291 291 291 291 290 291 291 290 291 290 289 288 288 288 288 287 287 287 287 287 286 286 286 286 286 286 286 285 285 284 285 283 282 282 282 282 283 281 281 281 281 281 280 280 280 279 280 279 278 277 278 277 276 277 277 277 277 277 277 277 276 274 274 275 277 279 279 279 279 280 280 280 281 281 281 282 283 282 282
291 292 291 291 291 291 291 290 290 290 290 290 291 290 290 290 289 288 288 287 287 285 286 286 286 286 286 285 286 285 285 285 285 285 284 284 284 283 282 282 282 282 282 281 280 280 280 280 280 280 280 279 279 279 279 278 278 278 278 277 277 277 276 276 276 275 275 275 274 274 275 275 275 277 279 279 279 280 280 280 280 280 281 281 281
288 289 290 290 290 290 290 290 290 290 290 290 290 289 289 289 289 288 288 287 286 285 285 285 285 285 285 285 285 285 285 285 284 284 284 284 283 283 282 282 281 282 282 280 280 281 280 280 280 279 279 279 279 280 282 279 279 278 277 277 277 277 276 276 275 276 275 274 274 274 275 276 275 275 277 279 280 280 280 280 280 280 280 280 281
Wind_Speed
3 5 1 4 5 7 9 10 11 11 11 12 12 12 12 11 10 10 10 10 10 11 10 10 10 10 10 10 10 11 10 11 11 11 11 10 10 9 9 8 8 7 8 8 8 7 9 7 8 8 8 9 9 9 10 10 10 10 10 10 10 10 10 10 9 10 11 11 10 11 10 8 8 6 5 5 5 6 5 5 5 3 3 3 7
6 4 2 2 5 8 8 10 11 11 11 12 11 12 12 12 11 11 10 10 10 11 11 11 11 11 11 11 10 11 11 11 11 12 12 12 11 10 10 9 9 9 9 9 8 9 9 9 9 9 9 10 10 10 10 10 11 11 11 11 11 11 9 9 10 11 11 11 11 10 9 8 6 3 4 4 5 6 5 5 5 3 2 5 6
5 4 3 1 4 7 8 10 10 10 10 11 11 11 11 11 11 10 10 10 10 10 11 11 11 12 12 12 11 12 12 11 12 11 13 12 11 12 11 11 10 10 11 10 9 9 11 9 10 11 12 11 11 11 12 11 11 11 11 12 11 10 9 8 9 10 11 11 11 10 8 9 8 3 4 4 6 7 6 5 4 5 4 7 6
6 4 2 2 6 7 7 6 11 12 10 10 8 9 10 10 10 11 10 10 10 11 12 11 11 12 12 12 12 13 12 10 12 12 12 12 11 11 11 12 11 10 10 11 11 12 11 11 10 13 13 13 12 12 12 12 12 12 12 12 11 11 10 10 10 10 11 10 10 7 5 5 5 5 4 5 6 7 5 4 3 4 7 6 6
7 4 3 2 3 7 10 10 9 12 12 10 9 9 9 9 8 10 10 9 10 11 11 11 11 11 11 11 11 10 11 12 13 12 11 11 11 10 10 10 12 12 11 11 12 11 12 13 14 14 13 13 13 12 13 13 13 13 12 12 12 12 13 13 12 12 11 11 9 5 5 4 3 4 2 5 7 6 4 3 3 6 4 6 8
6 4 3 4 3 4 9 11 11 11 13 11 10 9 9 9 8 9 9 9 9 9 9 10 10 9 9 9 10 9 10 11 12 12 12 11 11 11 10 10 10 11 12 13 13 12 13 15 14 14 13 13 13 13 12 12 13 12 13 12 13 13 14 14 14 13 12 10 8 5 4 4 3 1 2 4 5 5 3 4 5 6 7 8 8
7 4 4 4 3 4 8 10 12 12 12 12 10 10 10 10 9 9 9 8 9 9 9 9 9 9 9 9 9 8 9 10 11 12 13 12 12 12 11 11 10 10 11 13 14 15 15 16 14 13 13 13 13 13 12 12 12 12 12 13 13 14 15 15 15 14 13 7 5 5 5 4 3 2 3 3 4 3 5 5 6 6 7 8 8
5 5 4 4 4 5 8 11 11 12 13 12 12 12 11 10 10 10 10 9 8 10 10 10 10 9 10 9 9 9 10 10 10 11 12 14 13 13 13 12 12 13 13 14 14 14 14 13 12 11 12 12 12 11 11 11 12 12 12 13 13 14 15 16 16 14 13 6 6 5 5 5 5 3 5 4 1 4 4 5 6 6 7 7 6
6 5 5 4 4 6 8 9 12 12 13 12 12 13 12 11 11 11 11 11 10 10 10 9 9 9 9 9 9 10 11 11 11 11 12 13 13 13 13 13 13 13 13 13 13 13 13 12 12 12 12 12 12 11 11 11 11 12 12 13 13 14 15 16 16 14 8 6 6 5 6 6 6 6 7 6 4 4 4 4 4 5 5 5 4
6 5 4 4 4 7 8 10 12 12 13 13 13 13 13 13 13 12 12 12 12 12 11 11 11 10 10 10 10 10 10 10 11 12 13 13 13 13 13 13 14 14 13 13 14 13 13 13 13 13 13 13 12 12 12 12 13 13 14 14 15 15 16 16 16 11 7 7 7 6 6 10 6 6 9 11 4 3 4 4 2 2 2 3 4
6 5 4 4 4 8 11 13 12 12 13 13 13 13 13 14 14 14 13 13 12 12 12 12 12 11 11 11 11 12 12 12 13 13 13 13 13 13 13 13 13 13 13 13 13 13 13 13 13 13 13 13 13 13 13 13 13 13 14 14 15 16 16 16 13 7 7 8 8 7 8 13 7 6 12 13 9 2 5 4 3 1 3 5 6
6 4 4 4 5 9 12 14 14 14 14 14 13 13 14 14 14 14 14 13 13 13 13 13 13 13 13 13 13 13 13 13 13 13 13 13 13 13 13 13 13 13 13 13 13 13 13 13 13 14 14 14 14 14 14 13 14 14 14 14 14 15 16 15 8 7 7 8 8 7 8 8 7 8 16 13 8 3 2 2 2 3 4 4 5
6 5 4 4 4 8 12 16 15 15 15 15 15 15 14 14 13 13 13 13 14 14 14 13 13 13 13 13 13 13 13 13 13 13 13 13 13 13 13 13 13 13 13 13 13 13 13 14 14 14 13 13 13 14 14 14 14 14 14 15 15 15 15 14 6 7 7 7 6 8 7 6 6 13 13 12 8 7 6 4 4 5 5 5 4
7 5 4 4 3 7 11 13 15 16 16 16 16 15 14 14 13 13 14 14 13 14 13 13 13 13 13 13 13 13 13 13 13 13 13 13 13 13 13 13 13 13 13 13 13 13 13 14 14 14 13 13 13 13 14 14 14 15 16 16 16 16 15 8 7 6 6 7 6 7 7 6 6 13 14 11 9 9 6 5 6 7 7 7 7
9 6 4 4 4 5 10 11 12 13 14 15 15 14 14 14 14 14 14 13 13 13 13 13 13 13 13 13 14 14 13 13 13 13 13 13 13 13 13 13 13 13 13 13 13 13 13 14 14 14 14 13 13 14 14 14 14 15 16 16 16 16 15 6 6 5 6 6 6 6 7 6 13 14 14 13 12 11 12 11 12 11 10 9 9
8 8 5 4 4 4 4 8 10 10 11 13 14 14 14 14 14 14 14 14 14 14 14 14 14 14 14 14 14 14 14 13 13 13 13 13 13 12 13 13 13 13 13 13 13 13 14 14 14 14 14 14 14 14 14 14 15 15 16 16 16 16 15 9 6 6 6 6 6 6 7 7 16 14 13 14 13 12 13 13 12 12 12 12 12
8 7 6 5 4 4 4 4 5 9 9 10 11 12 14 15 15 15 15 15 15 15 15 15 15 15 15 15 15 14 14 13 13 13 13 13 13 13 13 13 13 13 13 13 14 14 14 14 14 14 14 14 14 14 14 14 15 15 15 16 16 16 14 10 6 6 6 6 6 7 7 7 13 15 15 14 14 14 14 14 14 14 14 13 13
7 7 7 6 4 4 4 4 4 5 5 7 10 11 13 15 15 15 15 15 15 15 15 15 15 15 15 15 15 14 14 14 13 13 13 13 13 12 13 13 13 13 13 13 14 14 14 14 14 14 14 14 14 14 14 15 15 15 15 15 15 15 13 11 6 6 6 7 7 6 7 11 17 15 15 15 15 15 15 14 15 15 15 14 14
6 6 5 6 6 4 5 4 4 4 5 5 5 8 12 13 15 15 15 15 15 16 16 15 15 15 15 14 13 13 12 13 13 13 13 12 12 12 13 13 13 13 13 13 13 14 14 14 14 14 14 14 15 15 15 15 16 16 16 16 14 11 10 7 6 6 6 6 6 7 7 16 16 16 15 15 15 14 14 15 15 15 15 16 15
6 7 7 6 5 5 4 4 4 4 4 4 5 5 9 12 13 14 14 15 15 16 16 15 14 14 14 13 11 8 9 8 11 8 11 12 12 8 12 13 12 12 12 13 13 13 14 14 14 14 14 14 14 14 14 15 15 16 16 16 14 11 7 6 6 6 6 6 6 6 11 16 16 15 15 15 15 15 15 15 15 16 16 16 16
5 7 7 7 6 7 6 5 4 4 4 4 4 5 6 10 9 11 12 14 14 15 15 13 11 11 10 9 9 6 5 5 6 5 7 5 8 10 12 12 12 12 12 12 12 12 12 13 13 13 13 14 13 13 13 14 15 15 14 14 11 7 6 6 7 6 6 6 6 7 15 15 15 15 14 14 14 13 14 14 14 14 14 15 15
8 7 7 8 8 7 8 7 6 6 5 5 4 4 5 6 5 5 6 7 9 10 9 7 8 6 9 8 6 5 5 4 5 6 4 4 7 10 10 12 11 11 11 11 11 11 12 12 12 13 13 12 11 6 6 9 12 13 12 11 7 6 6 6 6 6 6 6 6 9 16 16 15 15 14 14 13 13 13 13 14 13 14 14 14
9 8 9 11 9 8 7 8 8 7 6 5 5 5 5 5 5 5 5 6 6 6 6 6 6 6 6 6 6 6 5 4 4 4 4 7 7 9 11 11 11 10 10 10 10 11 11 12 13 12 11 10 5 4 4 4 5 8 7 6 6 6 6 6 6 6 6 6 6 13 16 17 16 15 14 14 13 13 13 13 13 13 13 14 14
12 12 11 8 9 10 11 9 9 9 8 7 6 6 6 6 6 6 6 6 6 6 5 5 6 6 6 6 6 5 5 5 6 8 6 5 7 8 10 9 9 9 9 6 7 9 9 10 11 10 6 4 4 4 4 3 3 4 4 5 5 5 5 5 5 6 6 5 6 14 15 16 16 16 15 15 15 14 14 14 14 13 13 13 13
12 7 5 10 12 11 10 10 9 9 8 7 7 7 6 6 6 6 6 6 6 5 5 5 5 7 6 6 6 4 5 6 5 6 6 6 5 5 4 4 3 3 5 3 3 3 3 4 4 5 5 5 5 4 3 5 3 4 4 4 4 4 4 4 4 4 4 5 5 13 14 15 15 15 15 15 15 15 15 15 15 14 14 13 13
5 9 13 11 13 12 12 10 10 10 10 9 9 8 8 7 7 7 6 6 6 6 5 5 6 7 6 6 6 6 6 6 5 5 5 6 5 5 4 3 3 3 2 4 3 3 3 4 5 5 5 5 5 5 4 4 4 4 5 4 4 4 4 4 4 4 4 4 4 11 13 13 13 14 14 14 14 14 14 15 15 15 14 13 13
11 13 11 10 11 11 11 10 11 10 10 8 7 7 8 7 7 7 7 7 6 6 6 6 6 6 6 7 7 7 7 6 6 6 6 6 6 5 4 3 3 3 2 4 4 3 4 5 5 5 4 5 5 5 5 4 4 4 5 4 5 5 5 5 5 4 5 4 5 10 12 12 13 12 13 13 12 13 13 13 13 13 13 13 13
8 11 11 11 12 14 13 12 12 12 10 9 9 8 7 7 7 7 7 7 7 7 6 6 6 7 6 7 6 7 8 7 6 6 6 5 6 4 4 3 3 3 2 3 5 4 5 4 4 4 6 5 5 5 5 5 5 5 5 5 5 5 5 5 5 5 5 4 4 6 11 12 12 12 12 12 12 12 12 12 12 12 12 13 13
12 12 11 12 13 13 13 14 12 13 10 10 10 8 8 7 7 8 8 7 7 7 7 6 7 7 6 7 7 8 7 7 7 7 6 6 6 5 4 4 3 3 3 3 3 4 5 3 4 4 5 5 5 5 4 4 4 5 5 6 5 6 6 6 5 5 5 6 5 6 12 13 13 13 13 12 12 12 12 12 13 13 13 13 13
17 13 12 13 11 13 15 16 15 14 12 10 9 9 9 9 9 9 8 8 7 7 6 7 7 7 7 7 7 7 8 8 8 6 7 7 6 5 4 4 4 3 3 4 3 4 4 3 4 4 4 4 5 4 4 4 5 4 5 5 5 5 5 5 6 5 5 6 6 6 11 13 13 13 13 13 13 13 13 14 15 15 14 14 14
11 13 14 13 12 13 15 15 13 12 10 11 10 10 9 10 10 9 8 9 8 7 7 7 6 6 7 8 7 7 7 7 8 8 7 7 6 6 5 4 4 3 3 3 2 3 3 4 4 4 4 4 4 3 5 5 5 5 4 5 6 6 6 6 5 5 5 6 6 5 5 10 12 12 12 12 13 13 14 14 14 14 14 14 15
13 16 14 11 12 16 15 15 14 13 12 12 10 10 11 10 10 9 9 9 8 8 7 7 7 7 6 8 7 8 7 7 8 8 8 7 7 6 5 5 4 3 3 3 3 3 4 3 3 3 3 4 3 4 3 5 5 5 5 5 5 6 6 6 6 6 5 5 5 5 5 6 10 12 12 13 14 14 15 15 15 15 15 15 16
13 14 12 12 16 15 15 15 14 13 14 14 12 11 10 9 10 10 9 9 9 8 8 8 8 7 6 8 8 8 7 8 8 8 8 7 7 6 5 5 5 4 3 3 3 3 3 4 4 3 4 3 3 4 3 3 4 5 5 6 6 6 6 6 6 6 6 6 6 6 5 5 5 8 11 12 13 14 15 15 15 16 15 15 15
12 9 10 15 14 10 11 11 13 15 15 12 11 10 10 10 9 9 9 9 9 9 9 7 7 7 7 8 8 8 7 7 8 7 7 7 7 6 6 5 5 4 3 3 4 4 4 4 3 4 3 3 4 3 4 5 4 4 5 5 5 6 6 6 6 6 5 6 6 5 5 5 5 5 5 8 10 11 13 15 16 16 15 15 15
9 9 16 19 15 13 12 11 14 15 14 13 13 12 10 10 10 9 9 10 9 9 8 7 7 7 7 7 8 7 7 7 7 8 7 7 7 6 6 6 5 4 5 3 5 3 4 4 3 4 3 3 3 3 3 3 4 6 5 5 6 6 6 6 6 5 5 6 5 5 5 5 5 5 5 5 6 9 12 14 16 16 16 15 15
16 17 15 11 14 14 14 13 14 15 15 15 13 12 12 10 10 9 9 9 9 9 8 8 8 7 7 7 7 7 7 7 7 7 7 7 7 7 6 5 5 5 5 3 3 5 4 4 1 2 3 3 3 4 3 3 3 5 5 5 6 6 6 5 6 6 5 5 5 5 5 5 4 4 4 4 5 6 10 12 14 15 15 14 15
17 14 14 14 15 15 15 15 17 18 16 15 13 10 10 10 10 10 10 9 9 8 7 7 7 7 7 7 7 7 7 7 7 6 7 7 6 6 6 6 5 5 5 4 4 3 4 3 2 2 3 4 4 4 4 3 5 5 6 6 6 6 6 5 5 5 5 4 4 4 4 4 4 5 4 3 5 4 6 10 12 13 13 14 16
14 15 15 17 18 16 16 16 15 15 14 13 12 11 10 9 8 8 8 8 7 6 6 7 7 7 7 7 8 7 7 7 7 6 7 6 6 6 6 6 6 6 5 4 3 3 3 3 3 2 3 4 5 4 4 5 5 6 6 7 8 6 5 5 5 3 5 4 4 4 4 4 4 4 5 4 3 3 4 6 9 9 9 12 16
12 14 14 14 12 12 12 13 13 13 12 11 10 9 8 6 5 6 6 6 5 5 6 7 7 7 7 7 8 8 8 8 8 7 8 7 7 6 6 6 6 6 6 5 4 3 3 2 3 3 2 3 3 1 1 4 5 6 6 7 7 7 5 4 3 3 3 3 3 3 4 5 4 4 4 3 3 4 4 4 4 4 6 11 14
11 12 13 13 13 12 11 11 13 13 11 10 9 8 7 8 9 5 5 7 6 7 7 8 7 7 7 8 8 8 7 8 8 8 8 7 7 7 7 6 6 6 7 6 5 5 5 4 3 3 3 2 2 1 2 3 3 5 6 6 7 7 5 3 3 2 1 2 3 3 4 4 3 3 3 3 4 4 3 4 5 6 5 8 12
10 12 14 15 16 17 15 16 14 14 13 12 11 12 12 9 6 11 12 10 9 7 8 7 8 7 8 8 9 8 8 8 8 8 8 8 7 6 6 5 5 6 6 6 5 5 4 4 4 2 3 3 2 3 3 1 4 4 2 4 7 5 3 2 2 2 2 3 2 2 3 3 3 3 3 3 4 4 4 6 6 6 7 6 7
12 13 16 18 16 15 17 15 13 14 15 15 14 13 13 15 15 14 11 10 10 11 11 9 9 8 9 9 8 8 9 9 8 8 8 8 8 7 7 7 7 6 5 4 4 4 4 4 4 3 1 3 2 1 4 2 5 2 6 7 6 7 3 2 2 1 6 5 2 1 2 3 4 4 3 5 4 4 4 4 4 6 6 6 6
16 18 17 14 14 15 14 14 14 15 14 14 13 14 11 9 9 8 10 7 6 6 6 7 6 8 9 9 8 9 9 8 9 9 9 8 8 8 8 7 7 7 7 6 5 5 5 5 5 6 5 1 3 1 3 4 1 3 2 0 3 6 5 3 3 5 9 4 1 2 4 3 4 3 3 3 3 3 4 4 4 4 5 5 5
10 10 11 15 13 14 14 15 15 15 14 14 14 11 9 6 4 6 5 6 6 5 5 5 6 7 9 8 9 10 10 9 9 9 8 8 8 9 7 7 7 7 8 8 7 7 6 5 4 5 6 5 2 1 2 3 2 2 5 1 2 1 2 1 5 9 5 2 1 3 1 3 3 3 3 2 3 3 4 3 4 5 5 4 4
12 14 15 15 13 17 17 16 15 15 14 14 14 10 10 8 6 6 5 5 4 5 5 6 8 9 8 10 12 10 10 9 9 9 8 9 8 7 8 7 7 7 7 8 8 8 7 6 7 6 5 7 5 3 0 1 3 1 2 2 3 2 1 3 6 6 2 4 1 1 2 1 3 3 3 3 3 4 3 4 5 5 4 4 4
14 15 15 16 14 14 14 14 12 12 12 12 13 12 12 13 11 11 11 10 9 10 15 17 13 14 15 8 7 10 10 9 9 9 8 7 8 8 7 8 8 8 7 7 7 6 6 7 7 6 5 4 7 6 3 0 1 1 1 2 2 2 3 3 2 6 3 8 5 2 1 1 2 3 2 3 3 4 4 6 5 5 4 4 4
14 11 11 12 13 14 15 15 14 13 12 13 14 12 12 12 17 17 16 16 15 13 9 6 10 8 6 10 10 8 9 10 9 9 8 8 7 7 8 8 7 7 6 7 7 8 7 7 5 5 6 6 6 5 7 4 1 2 2 3 2 1 1 2 2 4 8 2 2 3 2 1 2 2 2 2 3 4 5 5 5 4 5 4 4
11 9 10 10 14 15 14 15 12 12 12 13 15 15 16 15 14 13 12 13 15 13 11 10 7 7 9 10 9 9 9 9 10 9 9 8 8 8 7 7 8 7 7 7 8 7 6 4 5 5 5 6 6 8 6 6 6 2 1 2 2 1 1 0 0 2 3 10 10 3 5 3 1 4 4 3 3 5 6 5 5 5 5 4 5
9 13 14 13 12 11 13 12 13 12 12 15 16 16 15 15 15 12 12 11 10 7 7 7 8 9 10 8 9 9 9 9 9 10 9 9 8 8 8 7 7 7 7 6 6 7 8 8 7 6 6 6 5 6 7 7 6 5 2 0 1 0 1 0 0 2 3 3 10 12 11 3 3 5 2 2 6 5 5 5 3 3 5 5 5
9 8 7 8 10 10 13 14 14 12 12 14 15 15 14 12 13 14 16 12 9 6 8 9 9 9 11 10 9 9 9 9 9 9 9 9 9 8 8 8 8 8 7 7 7 7 7 6 7 7 6 6 4 6 7 7 6 5 4 4 2 1 1 1 1 2 1 4 9 8 10 16 20 7 4 3 3 5 5 3 4 4 4 5 5
5 7 8 9 9 11 13 14 15 11 12 14 15 16 14 13 15 15 16 15 12 10 10 10 9 10 12 11 11 10 9 9 8 8 10 9 8 8 8 8 7 7 7 8 8 8 8 7 6 5 5 6 6 6 6 5 5 5 4 5 6 5 5 4 3 2 2 3 3 7 8 7 9 15 15 9 7 6 5 4 3 4 4 4 4
Wind_Direction
195 146 217 292 176 130 125 117 111 106 103 109 114 116 117 116 115 117 120 121 118 115 112 111 112 111 110 107 107 107 107 106 105 100 94 90 86 86 84 84 90 80 77 71 70 62 65 66 74 73 72 67 61 62 64 63 60 56 52 51 50 47 37 25 10 359 350 353 353 355 354 353 351 354 30 50 54 72 56 34 36 25 30 27 38
169 182 182 252 168 144 135 129 120 111 106 100 102 110 113 115 115 116 114 114 114 114 111 112 110 110 109 110 110 110 109 106 104 100 93 89 87 84 83 84 78 73 71 73 79 84 80 72 61 64 66 61 55 51 55 57 58 54 52 50 50 47 36 22 8 354 351 350 353 358 355 354 355 11 57 68 63 71 54 39 24 24 346 6 29
145 146 169 212 149 150 152 143 128 119 113 109 110 104 107 113 115 113 115 115 117 116 112 109 105 104 105 104 102 104 97 92 85 88 87 82 82 79 79 79 79 80 80 76 75 75 76 75 82 73 62 58 57 51 47 47 48 48 49 47 44 38 30 20 5 352 348 353 359 1 357 357 351 16 91 95 80 77 67 49 23 4 346 10 12
133 154 141 163 142 143 135 140 137 120 119 110 106 115 114 115 119 116 109 109 109 109 111 110 106 104 104 103 104 98 93 88 89 83 83 83 82 83 78 73 76 80 86 92 87 82 79 77 67 62 56 50 51 51 47 44 42 40 39 34 28 24 19 13 6 359 352 358 4 9 4 355 347 330 113 101 88 78 82 69 33 16 17 3 9
140 156 143 127 163 154 146 139 138 142 129 139 137 130 123 121 121 117 117 114 113 106 103 104 104 104 104 102 95 91 91 84 76 76 78 81 78 77 75 73 68 67 73 75 77 80 77 73 64 59 55 50 45 42 39 36 33 31 27 22 20 17 12 8 4 3 358 357 3 14 1 352 342 339 36 84 91 86 76 55 40 29 14 15 24
147 152 150 143 163 167 152 146 144 145 145 149 151 142 138 135 134 124 125 122 116 107 102 99 94 97 99 95 93 90 90 88 82 78 76 78 76 73 71 64 64 59 60 65 66 69 71 65 60 55 49 47 46 41 37 33 30 26 22 20 18 14 10 5 2 359 359 355 2 5 0 349 339 344 319 69 84 97 98 68 54 42 33 23 19
145 154 149 154 160 178 157 149 143 141 140 144 145 148 148 146 145 137 134 137 131 120 110 106 100 92 95 96 95 92 89 86 82 79 76 74 73 71 67 63 62 60 57 59 60 55 58 62 55 52 48 43 40 37 34 32 28 25 20 15 13 12 8 4 1 356 356 358 356 350 348 344 333 310 337 79 79 90 89 67 50 36 22 18 16
139 150 156 155 170 188 158 152 149 143 140 143 147 146 145 149 150 146 140 133 133 124 112 112 111 108 97 97 96 93 86 84 84 81 77 76 76 70 65 59 58 56 55 58 58 54 54 55 56 53 50 46 40 36 32 30 25 21 17 13 9 7 5 2 359 355 354 359 347 343 340 338 333 324 344 3 93 73 70 58 46 38 29 23 5
152 160 156 158 176 173 158 152 151 148 143 140 142 145 148 149 148 146 138 135 132 130 122 118 121 118 112 108 104 97 92 91 89 86 82 79 76 75 70 64 59 59 59 59 60 60 58 54 51 50 48 44 40 37 33 29 26 21 17 13 10 7 5 1 357 355 353 348 343 336 338 340 342 338 336 2 64 80 102 74 45 35 30 8 345
159 161 158 158 168 162 159 161 154 152 146 144 144 146 148 146 146 145 141 136 135 136 131 131 125 126 124 120 113 111 109 106 95 89 87 84 81 79 76 71 64 61 60 60 59 56 54 51 48 46 46 43 41 39 37 35 31 24 18 14 9 7 4 1 357 352 347 341 338 342 342 347 343 340 331 336 340 145 122 123 122 62 352 359 347
156 162 162 156 171 165 162 160 156 153 150 148 149 150 150 149 149 144 138 136 135 134 133 133 131 128 124 123 120 116 110 101 95 90 88 87 85 82 79 76 73 69 64 63 61 58 55 51 47 45 43 42 41 41 41 39 35 30 25 19 13 8 4 360 359 347 343 340 339 342 345 349 345 336 329 328 320 349 130 136 143 121 31 23 9
160 162 164 163 180 174 167 163 160 157 153 153 153 152 151 150 148 143 139 137 137 134 131 129 127 126 120 118 114 110 104 101 98 95 90 88 88 86 84 83 80 76 72 67 66 64 60 57 53 47 44 42 43 42 41 38 36 32 28 24 20 13 6 1 360 348 342 341 340 341 342 344 339 325 329 332 329 25 133 126 53 42 37 29 20
160 162 166 173 179 178 168 166 162 159 158 156 156 154 150 146 142 139 136 136 134 132 131 129 125 122 119 116 112 108 104 100 98 96 94 90 88 87 84 83 81 79 76 73 68 64 62 59 57 54 53 52 47 42 37 35 34 32 30 27 25 23 17 9 1 356 349 344 340 341 342 339 335 337 337 331 332 332 336 2 20 21 11 7 18
156 161 165 171 177 171 166 166 165 161 159 157 156 152 149 145 141 138 136 135 135 133 132 129 125 121 118 114 111 108 104 100 97 95 93 90 88 87 86 84 82 79 77 74 70 67 65 63 59 57 56 54 50 44 40 37 34 32 30 29 29 27 24 17 9 3 354 347 343 341 345 341 336 352 359 346 333 325 5 349 1 10 1 355 351
154 161 167 174 181 175 174 169 164 162 159 156 152 150 147 144 142 141 139 139 138 136 133 129 125 121 118 115 111 108 105 103 98 94 92 90 90 90 88 85 83 81 80 77 72 68 66 65 61 58 56 54 48 44 41 38 37 33 30 29 27 26 25 19 15 6 360 353 348 349 350 344 347 356 2 10 5 7 5 359 359 354 355 355 355
155 159 160 173 179 181 170 170 161 157 158 154 152 150 148 147 145 144 144 143 140 138 135 132 128 125 121 117 114 111 108 105 102 98 95 94 91 90 89 87 83 80 81 79 74 72 70 66 63 60 56 52 49 46 42 39 37 34 31 27 25 23 22 27 13 11 3 0 358 357 350 341 345 355 357 1 7 11 13 9 4 360 359 358 355
158 156 159 173 181 170 165 152 154 156 153 153 151 151 151 150 149 148 147 146 144 142 139 135 131 127 123 119 115 112 111 110 107 102 97 94 91 89 89 86 82 79 79 78 74 72 71 68 64 60 57 54 50 47 44 39 37 35 32 28 23 21 19 24 17 11 3 3 6 356 346 335 349 355 357 357 359 3 4 358 356 355 354 351 350
163 162 168 173 178 172 159 155 145 141 147 147 147 148 152 151 149 148 148 147 146 144 141 137 132 127 122 119 115 113 112 112 111 106 99 92 88 89 89 86 81 77 77 75 72 70 68 64 60 56 51 47 45 42 39 37 34 33 31 28 22 19 16 19 19 9 7 5 4 357 345 347 356 355 356 357 358 359 359 356 353 351 349 345 345
168 175 170 176 185 173 167 154 146 144 145 148 149 153 154 152 149 148 149 149 147 145 140 135 132 129 125 121 116 110 105 104 106 106 101 95 87 84 89 86 83 80 79 77 74 71 67 63 61 57 51 47 42 37 34 32 28 24 21 18 15 16 17 17 12 6 7 5 3 358 338 354 356 355 356 354 355 355 354 351 350 349 346 343 339
178 181 181 191 183 178 171 163 156 154 156 160 159 150 153 149 149 149 150 151 150 146 139 135 131 129 128 124 119 113 107 101 98 95 97 90 88 86 88 84 82 80 79 77 75 72 68 63 60 56 53 49 42 36 33 33 30 25 21 15 10 9 13 12 9 4 1 359 1 353 345 357 355 354 354 353 353 355 354 353 352 349 346 342 338
196 198 189 190 189 180 177 169 173 166 168 170 165 152 152 149 146 148 150 152 151 148 143 133 127 126 124 127 125 122 120 111 104 101 88 77 79 84 87 82 78 80 82 82 82 81 77 71 67 63 58 52 41 32 27 27 26 24 20 15 11 11 4 5 4 1 359 355 356 342 350 354 353 352 351 352 352 354 355 352 349 346 342 339 337
193 197 204 191 186 191 181 177 173 178 175 176 172 160 151 141 145 143 144 150 149 141 135 140 139 137 132 127 128 128 120 112 103 90 79 74 79 81 90 89 83 83 86 88 88 87 83 77 73 68 64 58 52 38 24 20 20 20 17 14 12 7 2 1 3 358 355 349 354 340 350 350 350 350 348 348 349 351 350 348 346 344 341 339 337
202 202 203 195 192 183 182 181 181 177 177 179 176 165 150 147 148 145 148 146 146 143 151 148 148 144 135 131 125 120 118 111 107 102 93 97 93 95 98 94 87 83 83 85 87 85 83 81 76 72 67 63 57 49 40 24 16 15 14 13 10 3 358 359 356 356 350 342 349 341 350 348 348 348 345 345 346 348 347 344 344 345 342 339 339
202 198 193 187 185 188 188 185 180 179 176 178 174 165 158 155 155 156 153 155 156 161 160 154 151 149 144 135 129 127 122 130 125 110 97 89 85 82 84 85 90 87 81 64 66 76 75 71 74 74 70 70 68 58 47 33 27 17 13 14 7 357 357 350 349 343 342 340 338 341 348 348 346 345 344 343 344 345 343 343 345 345 343 341 341
198 180 179 194 193 189 183 187 180 179 178 177 173 173 167 160 163 164 161 163 166 168 165 154 151 150 148 141 139 129 126 121 119 120 118 111 103 97 94 96 100 92 100 98 98 81 82 73 60 62 60 57 52 44 44 30 18 14 15 7 3 352 346 342 337 333 332 333 327 338 345 346 345 344 343 341 343 342 341 342 345 344 344 344 344
170 186 200 192 195 191 185 182 179 182 183 179 178 171 165 170 171 171 165 171 169 172 167 159 154 155 153 148 139 131 130 131 132 127 123 119 112 113 112 109 87 85 84 91 75 68 56 56 56 52 43 47 45 34 26 29 14 8 6 4 359 349 342 333 330 327 323 324 319 333 340 342 343 343 342 341 341 341 341 343 343 343 343 345 346
195 205 194 197 191 191 186 177 183 181 185 182 172 169 178 177 170 170 165 178 175 169 176 170 167 163 156 155 147 145 141 139 133 131 128 125 122 125 123 113 114 97 85 93 74 59 59 52 50 49 43 40 34 27 20 18 20 9 3 358 353 346 339 332 330 323 319 319 316 327 335 338 341 342 342 342 343 341 342 344 344 344 347 348 350
198 204 195 193 190 193 186 179 184 182 182 180 175 177 177 174 177 171 177 176 170 178 178 179 169 168 163 161 151 148 148 143 143 137 142 128 136 136 137 118 113 106 89 84 82 58 51 49 55 44 40 37 34 20 17 14 8 11 1 354 347 343 337 331 326 324 321 320 318 320 331 335 338 342 344 346 345 343 345 347 348 351 354 353 353
207 204 196 194 196 190 185 187 183 185 182 177 180 179 177 176 176 178 181 179 179 181 178 175 174 173 164 163 158 151 148 146 149 150 141 137 141 141 136 130 123 134 103 75 89 83 63 63 61 58 52 40 32 23 18 10 7 5 5 346 342 337 334 329 326 326 327 326 326 322 331 333 335 340 345 347 346 348 349 351 352 355 356 356 355
209 196 192 202 190 186 189 191 185 183 180 177 182 180 181 181 183 184 181 177 182 178 175 181 181 170 169 170 166 158 157 155 152 150 144 146 144 142 133 142 137 152 123 109 117 106 110 84 76 70 64 48 38 16 23 7 2 359 357 344 335 329 323 321 321 324 323 326 326 324 326 327 329 335 341 344 347 349 352 354 355 356 355 356 356
195 200 201 198 189 186 195 191 186 183 177 184 182 184 180 187 186 182 180 183 175 172 181 181 178 180 172 167 166 160 156 154 151 152 146 145 146 145 146 150 139 153 141 131 135 125 115 107 103 92 78 65 46 24 27 9 356 351 347 342 327 326 321 319 317 322 327 322 320 316 311 317 323 328 334 341 346 350 352 354 354 355 353 354 356
195 206 201 188 184 195 192 190 187 182 181 186 183 184 187 187 184 181 186 180 171 177 179 181 182 180 169 169 166 161 157 157 154 153 151 149 150 148 155 148 156 168 143 135 119 111 109 114 101 92 89 82 56 37 22 22 355 341 337 332 325 323 319 317 318 324 320 318 315 311 313 318 321 325 332 339 346 347 350 352 352 351 350 352 354
210 204 190 182 194 192 189 191 185 184 185 186 186 187 185 185 182 187 184 174 177 175 180 184 182 177 169 169 167 161 160 158 159 156 153 149 148 149 156 157 162 156 148 134 112 104 94 88 69 79 76 71 65 33 30 27 3 337 332 319 325 315 310 313 313 320 321 317 317 315 317 317 316 322 332 338 340 341 343 348 349 346 346 347 349
201 190 177 195 194 187 189 184 187 188 189 186 184 184 185 186 183 185 181 175 179 178 183 181 177 174 170 169 164 164 158 158 156 156 150 147 150 154 156 160 164 150 140 122 114 115 110 97 107 89 87 76 63 38 27 9 348 325 321 312 314 305 308 307 310 313 313 310 311 313 310 310 312 316 324 332 334 334 338 340 340 341 339 342 345
186 184 192 196 183 186 183 186 188 189 185 187 186 186 183 183 182 183 182 181 178 181 180 174 176 175 168 167 166 163 160 159 160 153 153 149 153 156 161 168 157 146 135 139 129 125 116 122 128 106 94 78 72 58 41 10 337 328 317 314 304 306 301 299 307 310 310 304 311 307 309 311 314 318 321 331 333 339 340 337 335 336 338 341 342
195 196 195 179 187 186 184 186 184 186 188 187 186 184 182 182 182 182 180 183 178 180 179 178 174 169 169 165 168 163 162 161 159 155 151 155 155 160 168 161 156 139 137 142 126 131 121 112 122 136 105 59 54 34 39 1 330 315 310 304 297 295 296 299 302 303 299 307 305 309 312 310 309 312 327 336 342 340 337 332 332 335 340 344 342
198 189 184 183 187 186 185 184 185 187 186 185 182 181 178 181 183 183 182 180 181 179 176 169 166 170 170 168 170 166 164 162 160 158 148 155 156 158 169 162 150 144 147 144 132 139 129 121 99 85 99 97 61 28 7 2 329 312 308 304 296 294 292 293 291 290 303 305 307 304 304 311 321 333 332 336 343 349 337 332 333 336 342 344 341
197 192 187 183 186 183 186 187 186 184 182 181 180 180 180 175 179 182 180 183 183 172 168 166 174 175 169 171 171 166 166 163 160 156 149 155 158 160 166 160 150 144 143 134 137 125 119 126 109 67 84 84 63 44 357 343 331 316 315 305 298 291 286 286 283 290 299 307 314 322 323 323 332 328 331 344 355 354 347 336 335 339 341 339 338
196 192 185 187 180 181 181 183 177 179 180 176 174 172 166 161 157 169 179 181 174 170 165 176 178 174 177 170 168 169 166 164 162 160 155 159 159 163 163 165 154 151 142 131 131 128 108 83 116 80 47 78 104 77 358 327 320 313 305 298 295 289 286 274 276 278 284 284 307 324 337 332 334 333 336 347 0 1 347 335 332 337 334 333 339
193 185 184 181 181 177 179 177 179 176 169 167 162 163 163 169 171 166 179 193 182 173 183 183 174 180 178 170 173 170 168 168 167 164 157 159 161 167 165 165 161 151 147 143 153 148 142 121 118 108 81 49 45 59 11 340 311 296 289 299 291 290 288 273 256 257 272 319 317 324 328 313 332 323 337 349 356 348 346 351 355 348 342 336 340
188 182 181 185 182 178 172 181 178 171 170 171 174 171 175 175 179 189 194 184 183 178 183 183 183 184 178 176 174 173 172 169 168 163 165 162 164 163 161 171 163 156 155 163 158 154 151 148 137 108 107 77 51 7 351 27 5 329 322 311 311 295 289 234 231 176 354 326 331 342 307 334 331 339 321 346 353 358 8 357 347 344 339 335 330
198 184 186 189 182 176 180 177 171 177 180 179 178 182 185 185 182 190 184 180 178 182 188 190 187 182 181 179 176 175 175 174 169 169 166 167 165 169 172 173 166 162 158 148 150 149 142 135 133 76 24 125 117 39 356 80 18 24 327 334 324 321 325 33 185 273 4 0 345 15 347 353 328 321 341 3 354 0 351 343 340 330 320 319 321
188 188 189 176 178 180 182 174 178 178 183 180 177 186 186 183 182 175 176 176 198 191 183 178 169 177 185 181 177 178 176 175 174 174 171 173 171 168 176 171 168 160 150 156 157 155 159 164 171 147 120 47 104 70 45 68 140 266 217 35 349 6 329 358 303 320 342 302 306 11 0 343 319 325 346 356 343 338 336 333 324 309 299 302 312
181 186 179 182 180 185 181 179 181 182 180 183 184 181 169 151 136 140 153 153 172 165 160 152 165 167 186 184 187 182 181 179 177 175 175 174 172 174 168 170 173 170 163 158 163 167 163 165 167 175 149 121 129 96 64 71 106 53 15 64 253 110 340 329 327 294 266 265 284 341 6 333 316 331 5 4 336 338 320 316 300 290 283 290 308
186 186 184 183 185 186 184 180 180 183 184 180 175 156 138 128 115 98 103 93 79 145 155 187 184 184 179 192 193 181 180 179 179 181 177 176 173 171 173 174 171 172 164 163 167 172 170 170 172 168 171 144 146 138 60 79 70 61 143 63 356 4 206 268 330 287 355 317 345 338 329 331 324 331 354 327 340 320 303 296 281 277 279 293 301
194 193 187 185 180 181 178 180 179 181 181 177 168 160 165 161 154 156 170 183 186 181 195 194 185 190 195 177 168 184 182 180 181 180 179 171 176 176 174 173 174 173 173 171 160 152 166 170 187 170 156 162 138 135 132 53 94 104 124 130 165 207 299 278 28 308 312 264 261 234 228 230 290 322 332 336 319 294 287 287 280 275 286 298 296
202 183 182 184 181 179 180 180 179 179 177 174 170 169 170 178 181 184 184 187 192 206 200 187 188 187 163 180 184 182 186 180 183 180 180 178 174 175 177 180 177 174 170 158 163 170 170 176 178 168 171 147 131 125 149 159 39 48 92 111 89 91 146 358 299 319 319 341 255 317 295 247 311 327 292 269 267 278 282 274 277 284 294 295 301
184 170 179 181 183 180 179 181 180 179 178 173 176 180 180 184 187 191 191 196 199 196 185 187 173 170 179 183 179 187 186 185 178 182 179 179 175 176 179 177 177 178 169 172 168 166 161 171 177 174 162 155 144 135 147 152 135 183 58 38 355 33 73 99 58 238 274 306 303 210 222 136 360 270 267 251 248 270 273 264 269 288 293 299 307
165 180 184 183 179 176 178 178 181 179 180 180 181 187 187 185 188 186 196 206 198 186 171 170 174 176 182 182 183 183 184 187 183 179 182 180 178 178 177 177 177 179 175 165 164 165 168 165 164 163 166 158 144 140 129 151 135 156 106 23 68 344 4 349 190 126 245 313 297 315 304 243 251 228 194 255 270 261 262 266 257 279 291 297 296
185 175 171 168 174 171 177 180 186 184 181 183 186 188 189 183 189 196 198 193 184 165 167 178 179 176 188 185 184 182 185 184 185 184 179 181 179 175 178 182 181 177 174 171 164 166 169 170 173 168 163 150 143 136 141 145 140 140 141 150 133 74 39 334 235 185 230 195 259 293 308 323 329 301 277 247 234 286 279 258 284 283 282 284 291
166 168 171 175 173 177 180 185 188 181 182 186 185 191 191 191 197 197 198 192 184 172 171 185 180 180 191 189 187 188 183 187 180 187 185 179 179 177 180 185 180 179 172 170 174 172 172 171 171 164 160 154 152 143 134 132 133 139 153 160 178 173 192 187 196 189 181 234 269 251 267 276 280 301 308 323 307 289 272 275 274 281 291 295 295